TimeCDT,TemperatureF,Dew PointF,Humidity,Sea Level PressureIn,VisibilityMPH,Wind Direction,Wind SpeedMPH,Gust SpeedMPH,PrecipitationIn,Events,Conditions,WindDirDegrees,DateUTC
12:55 AM,46.4,39.2,76,29.98,10.0,North,10.4,-,N/A,,Clear,360,2013-05-09 05:55:00
1:15 AM,45.7,38.5,76,29.99,10.0,NNW,9.2,-,N/A,,Clear,330,2013-05-09 06:15:00
1:35 AM,45.1,38.5,77,29.99,10.0,North,9.2,-,N/A,,Clear,350,2013-05-09 06:35:00
1:55 AM,44.6,38.3,79,29.97,10.0,North,16.1,-,N/A,,Clear,360,2013-05-09 06:55:00
2:15 AM,46.0,40.5,81,29.96,10.0,North,15.0,-,N/A,,Clear,360,2013-05-09 07:15:00
2:55 AM,45.5,39.6,80,29.96,10.0,NNW,12.7,-,N/A,,Clear,340,2013-05-09 07:55:00
3:35 AM,43.7,39.2,84,29.96,10.0,NNW,10.4,-,N/A,,Clear,340,2013-05-09 08:35:00
3:55 AM,43.9,39.6,85,29.97,10.0,NNW,9.2,-,N/A,,Clear,340,2013-05-09 08:55:00
4:35 AM,43.7,39.6,85,29.98,10.0,NNW,9.2,-,N/A,,Clear,340,2013-05-09 09:35:00
4:55 AM,42.3,38.1,85,29.98,10.0,NW,9.2,-,N/A,,Clear,320,2013-05-09 09:55:00
5:15 AM,42.8,37.9,83,29.97,10.0,NNW,9.2,-,N/A,,Scattered Clouds,340,2013-05-09 10:15:00
6:15 AM,43.0,38.5,84,30.01,10.0,NNW,5.8,-,N/A,,Scattered Clouds,340,2013-05-09 11:15:00
6:35 AM,42.8,38.3,84,30.01,10.0,NNW,8.1,-,N/A,,Scattered Clouds,340,2013-05-09 11:35:00
7:55 AM,46.8,40.1,78,30.02,10.0,NNW,17.3,20.7,N/A,,Clear,340,2013-05-09 12:55:00
8:15 AM,47.7,40.5,76,30.03,10.0,North,17.3,20.7,N/A,,Scattered Clouds,350,2013-05-09 13:15:00
8:35 AM,49.3,41.4,74,30.04,10.0,North,15.0,20.7,N/A,,Overcast,360,2013-05-09 13:35:00
9:35 AM,56.1,44.1,64,30.05,10.0,NNE,9.2,-,N/A,,Mostly Cloudy,20,2013-05-09 14:35:00
9:55 AM,57.9,45.3,63,30.06,10.0,NNE,10.4,-,N/A,,Mostly Cloudy,20,2013-05-09 14:55:00
10:35 AM,59.9,45.9,60,30.06,10.0,NE,9.2,-,N/A,,Scattered Clouds,40,2013-05-09 15:35:00
10:55 AM,61.5,46.0,57,30.06,10.0,North,12.7,17.3,N/A,,Scattered Clouds,350,2013-05-09 15:55:00
11:15 AM,61.7,45.7,56,30.06,10.0,North,11.5,18.4,N/A,,Scattered Clouds,360,2013-05-09 16:15:00
11:35 AM,64.4,45.9,51,30.06,10.0,North,11.5,-,N/A,,Clear,360,2013-05-09 16:35:00
12:15 PM,65.3,45.5,49,30.05,10.0,North,12.7,19.6,N/A,,Clear,360,2013-05-09 17:15:00
12:35 PM,66.6,43.7,44,30.04,10.0,North,11.5,18.4,N/A,,Clear,360,2013-05-09 17:35:00
12:55 PM,67.3,43.0,41,30.04,10.0,North,11.5,19.6,N/A,,Clear,360,2013-05-09 17:55:00
1:15 PM,68.9,43.2,39,30.03,10.0,NNE,11.5,16.1,N/A,,Clear,20,2013-05-09 18:15:00
1:35 PM,69.8,42.4,37,30.03,10.0,North,10.4,20.7,N/A,,Clear,10,2013-05-09 18:35:00
1:55 PM,69.4,41.2,36,30.02,10.0,NNW,10.4,-,N/A,,Clear,340,2013-05-09 18:55:00
2:15 PM,70.3,40.5,34,30.02,10.0,NNE,11.5,18.4,N/A,,Clear,30,2013-05-09 19:15:00
2:35 PM,72.3,38.5,29,30.02,10.0,North,9.2,-,N/A,,Clear,360,2013-05-09 19:35:00
3:15 PM,73.2,37.6,27,30.00,10.0,NNE,11.5,-,N/A,,Clear,30,2013-05-09 20:15:00
3:35 PM,73.2,37.2,27,30.00,10.0,North,5.8,-,N/A,,Clear,360,2013-05-09 20:35:00
3:55 PM,73.2,37.8,28,29.99,10.0,NE,12.7,18.4,N/A,,Clear,40,2013-05-09 20:55:00
4:15 PM,73.6,38.7,28,29.98,10.0,NE,12.7,17.3,N/A,,Clear,50,2013-05-09 21:15:00
4:35 PM,71.4,37.4,29,29.98,10.0,NNE,10.4,-,N/A,,Clear,30,2013-05-09 21:35:00
4:55 PM,73.2,37.4,27,29.98,10.0,North,13.8,21.9,N/A,,Clear,360,2013-05-09 21:55:00
5:15 PM,72.5,36.7,27,29.98,10.0,NNE,6.9,16.1,N/A,,Clear,30,2013-05-09 22:15:00
5:35 PM,73.8,38.8,28,29.97,10.0,East,11.5,17.3,N/A,,Scattered Clouds,80,2013-05-09 22:35:00
5:55 PM,71.2,38.5,30,29.97,10.0,ENE,15.0,-,N/A,,Scattered Clouds,70,2013-05-09 22:55:00
6:15 PM,70.3,39.2,32,29.97,10.0,ENE,12.7,-,N/A,,Scattered Clouds,70,2013-05-09 23:15:00
6:35 PM,68.9,38.7,33,29.98,10.0,NE,9.2,-,N/A,,Scattered Clouds,50,2013-05-09 23:35:00
6:55 PM,67.6,39.4,36,30.00,10.0,North,15.0,24.2,N/A,,Overcast,360,2013-05-09 23:55:00
7:15 PM,59.4,47.1,64,30.03,3.0,North,15.0,18.4,0.09,Rain,Heavy Rain,350,2013-05-10 00:15:00
7:35 PM,55.6,48.7,78,30.04,4.0,North,13.8,34.5,0.19,Rain,Heavy Rain,360,2013-05-10 00:35:00
7:55 PM,52.0,48.0,86,30.07,5.0,NNW,34.5,40.3,0.22,Rain,Heavy Rain,330,2013-05-10 00:55:00
8:15 PM,50.7,48.4,92,30.10,5.0,NW,29.9,36.8,0.01,Rain,Rain,320,2013-05-10 01:15:00
8:35 PM,50.4,48.2,92,30.12,7.0,NNW,23.0,28.8,0.01,Rain,Rain,330,2013-05-10 01:35:00
8:55 PM,50.0,47.3,90,30.11,7.0,NNW,21.9,-,0.05,Rain,Rain,330,2013-05-10 01:55:00
9:15 PM,50.9,47.3,87,30.11,10.0,NNW,21.9,-,N/A,,Mostly Cloudy,330,2013-05-10 02:15:00
9:35 PM,52.0,47.3,84,30.11,10.0,NNW,16.1,-,N/A,,Scattered Clouds,330,2013-05-10 02:35:00
9:55 PM,52.2,46.8,82,30.11,10.0,WNW,8.1,-,N/A,Rain,Light Rain,300,2013-05-10 02:55:00
10:15 PM,52.2,47.1,83,30.11,10.0,NNE,5.8,-,N/A,,Scattered Clouds,20,2013-05-10 03:15:00
10:35 PM,51.8,47.5,85,30.11,10.0,ENE,8.1,-,N/A,,Clear,70,2013-05-10 03:35:00
10:55 PM,52.7,47.1,81,30.11,10.0,NE,5.8,-,N/A,,Scattered Clouds,40,2013-05-10 03:55:00
11:15 PM,52.0,47.7,85,30.11,10.0,NNE,5.8,-,N/A,,Clear,20,2013-05-10 04:15:00
11:35 PM,50.2,47.7,91,30.13,10.0,North,6.9,-,N/A,,Clear,360,2013-05-10 04:35:00
11:55 PM,48.9,46.6,92,30.14,10.0,ENE,3.5,-,N/A,,Clear,70,2013-05-10 04:55:00